Wendover, UT

12:00 PM MDT on June 28, 2017 (GMT -0600)
Wendover

Weather History for KENV - February, 2014

Change the Weather History Date:

Sunday, February 16, 2014

  Actual Average Record
Temperature  
Mean Temperature 44 °F -  
Max Temperature 55 °F 43 °F 65 °F (1958)
Min Temperature 32 °F 27 °F 8 °F (1937)
Degree Days  
Heating Degree Days 21    
Moisture  
Dew Point 25 °F    
Average Humidity 50    
Maximum Humidity 75    
Minimum Humidity 24    
Precipitation  
Precipitation 0.00 in - - ()
Sea Level Pressure  
Sea Level Pressure 29.97 in    
Wind  
Wind Speed 10 mph (NW)    
Max Wind Speed 30 mph    
Max Gust Speed 48 mph    
Visibility 10 miles    
Events      
Averages and records for this station are not official NWS values.
T = Trace of Precipitation, MM = Missing Value Source: NWS Daily Summary

Daily Weather History Graph

Daily Weather History Graph

Search for Another Location

Airport or City:

Trip Planner

Search our weather history database for the weather conditions in past years. The results will help you decide how hot, cold, wet, or windy it might be!

Date:

Astronomy

Feb. 16, 2014 Rise Set
Actual Time 7:28 AM MST 6:12 PM MST
Civil Twilight 7:00 AM MST 6:40 PM MST
Nautical Twilight 6:28 AM MST 7:12 PM MST
Astronomical Twilight 5:56 AM MST 7:44 PM MST
Moon 8:13 PM MST (2/16) 7:59 AM MST (2/16)
Length of Visible Light 11h 39m
Length of Day
10h 43m
Full, 97% of the Moon is Illuminated
Feb 16
Full
Feb 22
Last Quarter
Mar 1
New
Mar 8
First Quarter
Mar 16
Full

Hourly Weather History & Observations

Time (MST) Temp. Windchill Dew Point Humidity Pressure Visibility Wind Dir Wind Speed Gust Speed Precip Events Conditions
12:15 AM 41.0 °F 39.0 °F 32.0 °F 70% 29.85 in 10.0 mi ENE 3.5 mph - N/A   Clear
12:35 AM 39.2 °F 37.0 °F 30.2 °F 70% 29.84 in 10.0 mi NNE 3.5 mph - N/A   Clear
12:55 AM 39.2 °F 37.0 °F 32.0 °F 75% 29.84 in 10.0 mi NNE 3.5 mph - N/A   Clear
1:15 AM 39.2 °F - 30.2 °F 70% 29.84 in 10.0 mi Calm Calm - N/A   Clear
1:35 AM 39.2 °F 37.0 °F 32.0 °F 75% 29.83 in 10.0 mi SW 3.5 mph - N/A   Clear
1:55 AM 39.2 °F - 32.0 °F 75% 29.82 in 10.0 mi Calm Calm - N/A   Clear
2:15 AM 37.4 °F 33.8 °F 28.4 °F 70% 29.82 in 10.0 mi WNW 4.6 mph - N/A   Clear
2:35 AM 37.4 °F 32.8 °F 28.4 °F 70% 29.81 in 10.0 mi SE 5.8 mph - N/A   Clear
2:55 AM 35.6 °F 32.8 °F 28.4 °F 75% 29.82 in 10.0 mi NNW 3.5 mph - N/A   Clear
3:15 AM 37.4 °F - 30.2 °F 75% 29.82 in 10.0 mi Calm Calm - N/A   Clear
3:35 AM 35.6 °F - 28.4 °F 75% 29.82 in 10.0 mi Calm Calm - N/A   Clear
3:55 AM 37.4 °F - 26.6 °F 65% 29.80 in 10.0 mi Calm Calm - N/A   Clear
4:15 AM 35.6 °F 28.6 °F 28.4 °F 75% 29.79 in 10.0 mi East 9.2 mph - N/A   Clear
4:35 AM 35.6 °F 32.8 °F 28.4 °F 75% 29.79 in 10.0 mi NNE 3.5 mph - N/A   Clear
4:55 AM 37.4 °F 32.1 °F 30.2 °F 75% 29.79 in 10.0 mi NE 6.9 mph - N/A   Clear
5:15 AM 37.4 °F 29.8 °F 30.2 °F 75% 29.78 in 10.0 mi NE 11.5 mph - N/A   Clear
5:35 AM 39.2 °F 32.5 °F 30.2 °F 70% 29.79 in 10.0 mi NNE 10.4 mph - N/A   Clear
5:55 AM 37.4 °F 32.1 °F 28.4 °F 70% 29.78 in 10.0 mi ENE 6.9 mph - N/A   Clear
6:15 AM 35.6 °F 30.7 °F 28.4 °F 75% 29.78 in 10.0 mi NE 5.8 mph - N/A   Clear
6:35 AM 37.4 °F - 28.4 °F 70% 29.78 in 10.0 mi Calm Calm - N/A   Clear
6:55 AM 35.6 °F 28.6 °F 26.6 °F 70% 29.79 in 10.0 mi WNW 9.2 mph - N/A   Clear
7:15 AM 37.4 °F 33.8 °F 24.8 °F 60% 29.79 in 10.0 mi NNW 4.6 mph - N/A   Clear
7:35 AM 42.8 °F 38.0 °F 24.8 °F 49% 29.79 in 10.0 mi West 8.1 mph - N/A   Clear
7:55 AM 46.4 °F 39.2 °F 24.8 °F 43% 29.80 in 10.0 mi WSW 18.4 mph - N/A   Clear
8:15 AM 50.0 °F - 26.6 °F 40% 29.81 in 10.0 mi WSW 19.6 mph 27.6 mph N/A   Scattered Clouds
8:35 AM 51.8 °F - 26.6 °F 38% 29.81 in 10.0 mi WSW 23.0 mph 27.6 mph N/A   Scattered Clouds
8:55 AM 53.6 °F - 26.6 °F 35% 29.82 in 10.0 mi WSW 19.6 mph 29.9 mph N/A   Partly Cloudy
9:15 AM 55.4 °F - 28.4 °F 36% 29.82 in 10.0 mi West 19.6 mph - N/A   Clear
9:35 AM 53.6 °F - 30.2 °F 41% 29.84 in 10.0 mi WNW 26.5 mph 33.4 mph N/A   Clear
9:55 AM 53.6 °F - 30.2 °F 41% 29.86 in 10.0 mi WNW 21.9 mph - N/A   Clear
10:15 AM 51.8 °F - 30.2 °F 44% 29.89 in 10.0 mi WNW 21.9 mph 32.2 mph N/A   Partly Cloudy
10:35 AM 50.0 °F - 30.2 °F 47% 29.89 in 10.0 mi West 17.3 mph 27.6 mph N/A   Mostly Cloudy
10:55 AM 53.6 °F - 30.2 °F 41% 29.90 in 10.0 mi West 21.9 mph 26.5 mph N/A   Partly Cloudy
11:15 AM 51.8 °F - 30.2 °F 44% 29.91 in 10.0 mi West 29.9 mph 39.1 mph N/A   Scattered Clouds
11:35 AM 53.6 °F - 28.4 °F 38% 29.92 in 10.0 mi West 25.3 mph 32.2 mph N/A   Partly Cloudy
11:55 AM 55.4 °F - 26.6 °F 33% 29.92 in 10.0 mi West 29.9 mph 48.3 mph N/A   Clear
12:15 PM 55.4 °F - 28.4 °F 36% 29.93 in 10.0 mi NW 25.3 mph 31.1 mph N/A   Scattered Clouds
12:35 PM 50.0 °F - 28.4 °F 43% 29.95 in 10.0 mi NW 17.3 mph 24.2 mph N/A   Mostly Cloudy
12:55 PM 53.6 °F - 30.2 °F 41% 29.97 in 10.0 mi West 23.0 mph 31.1 mph N/A   Scattered Clouds
1:15 PM 53.6 °F - 26.6 °F 35% 29.98 in 10.0 mi WNW 29.9 mph 36.8 mph N/A   Partly Cloudy
1:35 PM 53.6 °F - 26.6 °F 35% 29.99 in 10.0 mi West 28.8 mph 35.7 mph N/A   Partly Cloudy
1:55 PM 53.6 °F - 23.0 °F 30% 30.00 in 10.0 mi West 27.6 mph 36.8 mph N/A   Clear
2:15 PM 53.6 °F - 19.4 °F 26% 30.01 in 10.0 mi WNW 24.2 mph 36.8 mph N/A   Clear
2:35 PM 53.6 °F - 19.4 °F 26% 30.02 in 10.0 mi NW 28.8 mph 41.4 mph N/A   Clear
2:55 PM 53.6 °F - 19.4 °F 26% 30.03 in 10.0 mi NW 28.8 mph 35.7 mph N/A   Clear
3:15 PM 53.6 °F - 17.6 °F 24% 30.03 in 10.0 mi WNW 27.6 mph 32.2 mph N/A   Clear
3:35 PM 53.6 °F - 17.6 °F 24% 30.04 in 10.0 mi WNW 27.6 mph 38.0 mph N/A   Clear
3:55 PM 53.6 °F - 17.6 °F 24% 30.06 in 10.0 mi WNW 27.6 mph 34.5 mph N/A   Clear
4:15 PM 53.6 °F - 17.6 °F 24% 30.07 in 10.0 mi WNW 21.9 mph 33.4 mph N/A   Clear
4:35 PM 51.8 °F - 17.6 °F 26% 30.08 in 10.0 mi WNW 15.0 mph - N/A   Clear
4:55 PM 51.8 °F - 15.8 °F 24% 30.10 in 10.0 mi West 20.7 mph 25.3 mph N/A   Clear
5:15 PM 51.8 °F - 15.8 °F 24% 30.11 in 10.0 mi WNW 16.1 mph - N/A   Clear
5:35 PM 50.0 °F - 15.8 °F 26% 30.12 in 10.0 mi WNW 13.8 mph - N/A   Clear
5:55 PM 48.2 °F - 15.8 °F 27% 30.13 in 10.0 mi West 10.4 mph - N/A   Clear
6:15 PM 46.4 °F 40.4 °F 12.2 °F 25% 30.13 in 10.0 mi WNW 13.8 mph - N/A   Clear
6:35 PM 46.4 °F 40.7 °F 12.2 °F 25% 30.15 in 10.0 mi West 12.7 mph - N/A   Clear
6:55 PM 44.6 °F 40.2 °F 15.8 °F 31% 30.16 in 10.0 mi NW 8.1 mph - N/A   Clear
7:15 PM 42.8 °F 38.6 °F 15.8 °F 34% 30.17 in 10.0 mi East 6.9 mph - N/A   Clear
7:35 PM 42.8 °F 36.6 °F 17.6 °F 36% 30.18 in 10.0 mi NE 11.5 mph - N/A   Clear
7:55 PM 41.0 °F 32.8 °F 17.6 °F 39% 30.18 in 10.0 mi NE 16.1 mph - N/A   Clear
8:15 PM 39.2 °F 33.6 °F 17.6 °F 42% 30.20 in 10.0 mi North 8.1 mph - N/A   Clear
8:35 PM 39.2 °F 33.6 °F 24.8 °F 56% 30.21 in 10.0 mi East 8.1 mph - N/A   Clear
8:55 PM 37.4 °F 31.4 °F 24.8 °F 60% 30.22 in 10.0 mi NE 8.1 mph - N/A   Clear
9:15 PM 37.4 °F 30.3 °F 24.8 °F 60% 30.23 in 10.0 mi NE 10.4 mph - N/A   Clear
9:35 PM 37.4 °F 30.8 °F 24.8 °F 60% 30.23 in 10.0 mi NE 9.2 mph - N/A   Clear
9:55 PM 35.6 °F 30.7 °F 23.0 °F 60% 30.25 in 10.0 mi ENE 5.8 mph - N/A   Clear
10:15 PM 35.6 °F 32.8 °F 21.2 °F 56% 30.25 in 10.0 mi ENE 3.5 mph - N/A   Clear
10:35 PM 35.6 °F 32.8 °F 23.0 °F 60% 30.25 in 10.0 mi SSW 3.5 mph - N/A   Clear
10:55 PM 35.6 °F - 23.0 °F 60% 30.25 in 10.0 mi Calm Calm - N/A   Clear
11:15 PM 33.8 °F 29.6 °F 23.0 °F 65% 30.25 in 10.0 mi WNW 4.6 mph - N/A   Clear
11:35 PM 33.8 °F 30.8 °F 24.8 °F 70% 30.25 in 10.0 mi West 3.5 mph - N/A   Clear
11:55 PM 32.0 °F 26.4 °F 21.2 °F 64% 30.25 in 10.0 mi West 5.8 mph - N/A   Clear